Overview Statistics Trail Chart Weather Telemetry Raw packets
 

This is the latest recevied weather packets stored in our database for station/object LU1MQF-13. If no packets are shown the sender has not sent any weather packets the latest 10 day(s).

<< 25 26 27 28 29 30 31 >>
Time Temp. Humidity Pressure Rain* Wind** Luminosity Snow
1777431413 17.22° C 42% 932 hPa - - - -
1777430513 17.22° C 42% 931.9 hPa - - - -
1777429613 17.22° C 43% 931.5 hPa - - - -
1777428712 18.89° C 46% 931.7 hPa - - - -
1777427813 17.22° C 46% 931.9 hPa - - - -
1777426913 17.22° C 43% 932 hPa - - - -
1777426013 17.22° C 43% 931.9 hPa - - - -
1777425112 17.22° C 43% 931.8 hPa - - - -
1777424213 17.78° C 45% 931.7 hPa - - - -
1777423313 18.89° C 53% 931.7 hPa - - - -
1777422413 18.89° C 47% 931.4 hPa - - - -
1777421512 18.89° C 45% 931.5 hPa - - - -
1777420612 18.89° C 44% 931.7 hPa - - - -
1777419713 18.89° C 50% 931.6 hPa - - - -
1777418812 18.89° C 44% 931.9 hPa - - - -
1777417913 20° C 39% 931.9 hPa - - - -
1777417012 18.89° C 35% 931.6 hPa - - - -
1777416113 18.89° C 34% 931.6 hPa - - - -
1777415213 18.89° C 33% 931.6 hPa - - - -
1777414312 18.89° C 32% 931.5 hPa - - - -
1777413412 20° C 30% 931.7 hPa - - - -
1777412512 20° C 29% 931.6 hPa - - - -
1777411612 21.11° C 26% 931.5 hPa - - - -
1777410712 21.11° C 24% 931.6 hPa - - - -
1777409813 21.11° C 24% 931.7 hPa - - - -

* Rain since midnight (hover to see other rain measurements)
** Current wind speed in m/s (hover to see current wind gust speed)